Location: Azul
(36.7830°S, 59.8500°W)
Time: 09:53:51
(UTC-03:00)

ISS - Pass Details

Date: 14 December 2017
Orbit: 402 x 406 km, 51.6° (Epoch: 16 December)

Event Time Altitude Azimuth Distance (km) Brightness Sun altitude
Exits shadow 01:29:22 15° 160° (SSE) 1,198 -0.7 -29.4°
Drops below altitude 10° 01:30:13 10° 151° (SSE) 1,485 -0.2 -29.4°
Sets 01:32:31 0° 138° (SE) 2,352 0.9 -29.3°
